Erie, PA

5:04 AM EDT on May 28, 2017 (GMT -0400)
Erie International

Weather History for KERI - April, 2014

Change the Weather History Date:

Saturday, April 5, 2014

  Actual Average Record
Temperature  
Mean Temperature 35 °F 43 °F  
Max Temperature 40 °F 52 °F 82 °F (1910)
Min Temperature 30 °F 35 °F 11 °F (1881)
Degree Days  
Heating Degree Days 30 22  
Month to date heating degree days 111 114  
Since 1 July heating degree days 6071 5390  
Cooling Degree Days 0 0  
Month to date cooling degree days 0 0  
Year to date cooling degree days 0 1  
Moisture  
Dew Point 26 °F    
Average Humidity 68    
Maximum Humidity 82    
Minimum Humidity 54    
Precipitation  
Precipitation 0.00 in 0.12 in 2.95 in (1947)
Month to date precipitation 0.45 0.57  
Year to date precipitation 9.53 8.86  
Snow  
Snow 0.00 in 0.20 in - ()
Month to date snowfall 0.0 1.1  
Since 1 July snowfall 137.2 98.8  
Snow Depth 0.00 in    
Sea Level Pressure  
Sea Level Pressure 29.99 in    
Wind  
Wind Speed 13 mph (WSW)    
Max Wind Speed 30 mph    
Max Gust Speed 44 mph    
Visibility 10 miles    
Events      
T = Trace of Precipitation, MM = Missing Value Source: NWS Daily Summary

Daily Weather History Graph

Daily Weather History Graph

Search for Another Location

Airport or City:

Trip Planner

Search our weather history database for the weather conditions in past years. The results will help you decide how hot, cold, wet, or windy it might be!

Date:

Astronomy

Apr. 05, 2014 Rise Set
Actual Time 6:56 AM EDT 7:50 PM EDT
Civil Twilight 6:28 AM EDT 8:19 PM EDT
Nautical Twilight 5:54 AM EDT 8:53 PM EDT
Astronomical Twilight 5:19 AM EDT 9:28 PM EDT
Moon 10:59 AM EDT (4/5) 1:03 AM EDT (4/5)
Length of Visible Light 13h 51m
Length of Day
12h 54m
Waxing Crescent, 34% of the Moon is Illuminated
Apr 5
Waxing Crescent
Apr 7
First Quarter
Apr 15
Full
Apr 22
Last Quarter
Apr 29
New

Hourly Weather History & Observations

Time (EDT) Temp. Windchill Dew Point Humidity Pressure Visibility Wind Dir Wind Speed Gust Speed Precip Events Conditions
12:17 AM 39.2 °F 31.2 °F 30.2 °F 70% 29.74 in 10.0 mi WSW 13.8 mph 28.8 mph N/A   Overcast
12:51 AM 39.0 °F 31.0 °F 30.9 °F 73% 29.76 in 10.0 mi WSW 13.8 mph 25.3 mph 0.00 in   Overcast
1:12 AM 39.2 °F 31.2 °F 30.2 °F 70% 29.75 in 10.0 mi WSW 13.8 mph 28.8 mph N/A   Overcast
1:46 AM 39.2 °F 29.8 °F 28.4 °F 65% 29.76 in 10.0 mi WSW 18.4 mph 27.6 mph N/A   Overcast
1:51 AM 39.9 °F 32.1 °F 28.0 °F 63% 29.77 in 10.0 mi WSW 13.8 mph 29.9 mph N/A   Overcast
2:51 AM 39.0 °F 29.3 °F 27.0 °F 62% 29.79 in 10.0 mi WSW 19.6 mph 39.1 mph N/A   Overcast
3:11 AM 37.4 °F 25.4 °F 28.4 °F 70% 29.79 in 10.0 mi WSW 27.6 mph 35.7 mph N/A   Overcast
3:19 AM 39.2 °F 28.0 °F 28.4 °F 65% 29.78 in 10.0 mi WSW 26.5 mph 40.3 mph N/A   Overcast
3:51 AM 37.9 °F 28.2 °F 27.0 °F 65% 29.80 in 10.0 mi WSW 18.4 mph 40.3 mph N/A   Overcast
4:51 AM 37.0 °F 25.4 °F 28.0 °F 70% 29.82 in 10.0 mi WSW 25.3 mph 39.1 mph N/A   Overcast
5:51 AM 36.0 °F 24.2 °F 28.9 °F 76% 29.85 in 10.0 mi WSW 24.2 mph 35.7 mph N/A   Overcast
6:51 AM 34.0 °F 23.4 °F 28.9 °F 82% 29.88 in 10.0 mi WSW 17.3 mph 31.1 mph N/A   Overcast
7:30 AM 33.8 °F 23.5 °F 28.4 °F 81% 29.90 in 10.0 mi West 16.1 mph 31.1 mph N/A   Overcast
7:51 AM 34.0 °F 24.6 °F 27.0 °F 75% 29.93 in 10.0 mi West 13.8 mph 25.3 mph N/A   Overcast
8:48 AM 33.8 °F 22.8 °F 26.6 °F 75% 29.95 in 10.0 mi West 18.4 mph 26.5 mph N/A   Overcast
8:51 AM 33.1 °F 23.0 °F 25.0 °F 72% 29.97 in 10.0 mi West 15.0 mph 26.5 mph N/A   Overcast
9:51 AM 32.0 °F 21.6 °F 23.0 °F 69% 30.01 in 10.0 mi West 15.0 mph 26.5 mph N/A   Overcast
10:24 AM 32.0 °F 21.6 °F 23.0 °F 69% 30.01 in 10.0 mi West 15.0 mph 24.2 mph N/A   Overcast
10:51 AM 32.0 °F 23.0 °F 21.9 °F 66% 30.05 in 10.0 mi West 11.5 mph 23.0 mph N/A   Overcast
11:05 AM 32.0 °F 21.6 °F 21.2 °F 64% 30.04 in 10.0 mi West 15.0 mph 20.7 mph N/A   Overcast
11:51 AM 33.1 °F 23.4 °F 23.0 °F 66% 30.09 in 10.0 mi West 13.8 mph 23.0 mph N/A   Overcast
12:13 PM 33.8 °F 24.8 °F 23.0 °F 65% 30.07 in 10.0 mi West 12.7 mph 24.2 mph N/A   Overcast
12:51 PM 34.0 °F 26.0 °F 24.1 °F 67% 30.11 in 10.0 mi West 10.4 mph - N/A   Overcast
1:38 PM 35.6 °F 26.2 °F 26.6 °F 70% 30.09 in 10.0 mi West 15.0 mph 20.7 mph N/A   Overcast
1:51 PM 35.1 °F 25.5 °F 24.1 °F 64% 30.12 in 10.0 mi West 15.0 mph 21.9 mph N/A   Overcast
2:51 PM 36.0 °F 26.7 °F 25.0 °F 64% 30.13 in 10.0 mi West 15.0 mph 25.3 mph N/A   Mostly Cloudy
3:51 PM 37.0 °F 28.5 °F 24.1 °F 59% 30.13 in 10.0 mi West 13.8 mph 24.2 mph N/A   Clear
4:51 PM 37.9 °F 30.0 °F 23.0 °F 55% 30.15 in 10.0 mi WSW 12.7 mph 19.6 mph N/A   Clear
5:51 PM 37.9 °F 30.0 °F 23.0 °F 55% 30.17 in 10.0 mi West 12.7 mph 21.9 mph N/A   Clear
6:51 PM 37.9 °F 31.5 °F 24.1 °F 57% 30.18 in 10.0 mi West 9.2 mph - N/A   Clear
7:51 PM 36.0 °F 29.6 °F 25.0 °F 64% 30.19 in 10.0 mi West 8.1 mph - N/A   Clear
8:51 PM 35.1 °F 30.1 °F 24.1 °F 64% 30.20 in 10.0 mi WSW 5.8 mph - N/A   Clear
9:51 PM 34.0 °F 31.0 °F 24.1 °F 67% 30.21 in 10.0 mi SSW 3.5 mph - N/A   Clear
10:51 PM 32.0 °F 27.5 °F 24.1 °F 73% 30.21 in 10.0 mi South 4.6 mph - N/A   Clear
11:51 PM 30.9 °F 26.2 °F 24.1 °F 76% 30.22 in 10.0 mi South 4.6 mph - N/A   Clear